Thunder Bay, Ontario

7:52 AM EDT on July 28, 2017 (GMT -0400)
Thunder Bay

Weather History for CYQT - November, 2012

Change the Weather History Date:

Wednesday, November 14, 2012

  Actual Average Record
Temperature  
Mean Temperature 36 °F -  
Max Temperature 44 °F -13 °F 53 °F (2001)
Min Temperature 27 °F -26 °F 1 °F (1996)
Degree Days  
Heating Degree Days 30    
Moisture  
Dew Point 30 °F    
Average Humidity 84    
Maximum Humidity 100    
Minimum Humidity 56    
Precipitation  
Precipitation 0.00 in 0.01 in - ()
Sea Level Pressure  
Sea Level Pressure 30.28 in    
Wind  
Wind Speed 2 mph ()    
Max Wind Speed 9 mph    
Max Gust Speed -    
Visibility 15.1 miles    
Events Rain , Snow    
Averages and records for this station are not official NWS values.
T = Trace of Precipitation, MM = Missing Value Source: Averaged Metar Reports

Daily Weather History Graph

Daily Weather History Graph

Search for Another Location

Airport or City:

Trip Planner

Search our weather history database for the weather conditions in past years. The results will help you decide how hot, cold, wet, or windy it might be!

Date:

Astronomy

Nov. 14, 2012 Rise Set
Actual Time 8:04 AM EST 5:18 PM EST
Civil Twilight 7:29 AM EST 5:53 PM EST
Nautical Twilight 6:51 AM EST 6:31 PM EST
Astronomical Twilight 6:15 AM EST 7:07 PM EST
Moon 8:58 AM EST (11/14) 6:02 PM EST (11/14)
Length of Visible Light 10h 23m
Length of Day
9h 14m
New Moon, 1% of the Moon is Illuminated
Nov 14
New Moon
Nov 20
First Quarter
Nov 28
Full
Dec 6
Last Quarter
Dec 13
New

Hourly Weather History & Observations

Time (EST) Temp. Windchill Dew Point Humidity Pressure Visibility Wind Dir Wind Speed Gust Speed Precip Events Conditions
12:00 AM 28.4 °F - 26.6 °F 93% 30.34 in 8.0 mi Calm Calm - N/A Snow Light Snow
12:30 AM 28.4 °F - 26.6 °F 93% 30.33 in 15.0 mi Calm Calm - N/A   Overcast
1:00 AM 29 °F - 27 °F 91% 30.34 in 10 mi WNW 1.2 mph - -   Overcast
1:00 AM 28.4 °F - 26.6 °F 93% 30.34 in 15.0 mi Calm Calm - N/A   Overcast
2:00 AM 28.4 °F - 26.6 °F 93% 30.33 in 15.0 mi Calm Calm - N/A   Overcast
3:00 AM 28.4 °F - 26.6 °F 93% 30.33 in 15.0 mi Calm Calm - N/A   Overcast
4:00 AM 28.4 °F - 26.6 °F 93% 30.33 in 15.0 mi Calm Calm - N/A   Overcast
5:00 AM 28.4 °F - 26.6 °F 93% 30.32 in 15.0 mi Calm Calm - N/A   Overcast
6:00 AM 28.4 °F - 26.6 °F 93% 30.32 in 15.0 mi Calm Calm - N/A   Overcast
7:00 AM 29 °F - 28 °F 92% 30.32 in 10 mi West 1.2 mph - -   Overcast
7:00 AM 28.4 °F - 28.4 °F 100% 30.32 in 15.0 mi Calm Calm - N/A   Overcast
8:00 AM 28.4 °F - 28.4 °F 100% 30.32 in 20.0 mi West 2.3 mph - N/A   Overcast
9:00 AM 28.4 °F - 28.4 °F 100% 30.32 in 20.0 mi WNW 2.3 mph - N/A   Mostly Cloudy
10:00 AM 32.0 °F - 28.4 °F 87% 30.32 in 20.0 mi Calm Calm - N/A   Mostly Cloudy
11:00 AM 33.8 °F - 30.2 °F 87% 30.31 in 20.0 mi Calm Calm - N/A   Mostly Cloudy
12:00 PM 37.4 °F - 30.2 °F 75% 30.30 in 20.0 mi Calm Calm - N/A   Mostly Cloudy
1:00 PM 42 °F - 31 °F 56% 30.27 in 10 mi SSE 4.6 mph - -   Overcast
1:00 PM 41.0 °F 36.4 °F 32.0 °F 70% 30.27 in 20.0 mi SE 6.9 mph - N/A   Mostly Cloudy
2:00 PM 44.6 °F 39.7 °F 32.0 °F 61% 30.25 in 20.0 mi South 9.2 mph - N/A   Mostly Cloudy
3:00 PM 42.8 °F 37.5 °F 32.0 °F 66% 30.24 in 20.0 mi South 9.2 mph - N/A   Mostly Cloudy
4:00 PM 41.0 °F 35.2 °F 32.0 °F 70% 30.23 in 15.0 mi South 9.2 mph - N/A   Mostly Cloudy
5:00 PM 41.0 °F 35.2 °F 32.0 °F 70% 30.23 in 20.0 mi South 9.2 mph - N/A   Overcast
6:00 PM 39.2 °F 35.0 °F 32.0 °F 75% 30.22 in 15.0 mi South 5.8 mph - N/A   Overcast
7:00 PM 39 °F - 33 °F 72% 30.22 in 10 mi SSW 4.6 mph - -   Overcast
7:00 PM 39.2 °F 35.9 °F 33.8 °F 81% 30.22 in 12.0 mi SW 4.6 mph - N/A   Overcast
8:00 PM 39.2 °F 34.2 °F 33.8 °F 81% 30.22 in 12.0 mi South 6.9 mph - N/A Rain Light Rain Showers
9:00 PM 39.2 °F - 33.8 °F 81% 30.21 in 12.0 mi Calm Calm - N/A   Overcast
10:00 PM 39.2 °F - 33.8 °F 81% 30.19 in 12.0 mi Calm Calm - N/A   Mostly Cloudy
10:07 PM 35.6 °F - 32.0 °F 87% 30.19 in 12.0 mi Calm Calm - N/A   Mostly Cloudy
11:00 PM 32.0 °F - 30.2 °F 93% 30.18 in 15.0 mi Calm Calm - N/A   Partly Cloudy